Simultaneous Nadir Overpasses (SNOs) Predictions

Prediction of SNOs between NOAA-19 and TERRA Satellite Orbit:

Table of predicted SNOs for the next 14.0 days since TLE Epoch: 9/14/2013
Index Date (NOAA-19) Time (NOAA-19) Lat,Lon (NOAA-19) SZA (NOAA-19 ) Date (TERRA) Time (TERRA) Lat,Lon (TERRA) SZA (TERRA ) Distance(km) Time Diff (sec)
1 09/14/2013 11:35:39 69.74, 6.35 66.39 09/14/2013 11:35:44 69.74, 6.41 66.39 2.29 5
2 09/14/2013 12:26:29 -69.45, 174.05 113.89 09/14/2013 12:25:16 -69.52, 173.74 113.83 14.21 73
3 09/16/2013 16:19:53 69.71, -64.65 67.21 09/16/2013 16:20:01 69.72, -64.69 67.21 1.67 8
4 09/16/2013 17:10:45 -69.53, 102.89 112.96 09/16/2013 17:09:32 -69.55, 102.72 112.95 6.97 73
5 09/18/2013 21:04:08 69.74,-135.74 68.09 09/18/2013 21:04:17 69.74,-135.73 68.09 0.38 9
6 09/18/2013 21:55:01 -69.62, 31.72 112.02 09/18/2013 21:53:47 -69.63, 31.76 112.01 2.28 74
7 09/21/2013 01:48:23 69.77, 153.17 68.98 09/21/2013 01:48:33 69.76, 153.22 68.96 3.02 10
8 09/21/2013 02:39:15 -69.59, -39.29 111.19 09/21/2013 02:38:04 -69.60, -39.36 111.19 2.75 71
9 09/23/2013 06:32:37 69.76, 82.14 69.83 09/23/2013 06:32:49 69.76, 82.16 69.83 0.84 12
10 09/23/2013 07:23:30 -69.63,-110.39 110.30 09/23/2013 07:22:20 -69.61,-110.42 110.32 2.54 70
11 09/25/2013 11:16:51 69.75, 11.12 70.67 09/25/2013 11:17:05 69.77, 11.10 70.69 1.95 14
12 09/25/2013 12:07:45 -69.66, 178.52 109.40 09/25/2013 12:06:35 -69.67, 178.59 109.40 2.83 70
13 09/27/2013 16:01:05 69.74, -59.92
